User: anonymous   Login
Location: Unspecified
(0.0000°N, 0.0000°E)
Time: 05:32:00
(UTC+00:00)
Language:

Gonets-D1 - Orbit

View from above orbital plane
View from above orbital plane
View from above satellite
View from above satellite

Ground track
Ground track

The orbit data is extracted from the following two-line orbital elements,

1 24726U 97006B   17177.93439798 -.00000002 +00000-0 -69563-4 0  9995
2 24726 082.5983 184.9997 0004393 326.3838 033.6974 12.61336040937396
Epoch (UTC): 26 June 2017 22:25:31
Eccentricity: 0.0004393
inclination: 82.5983°
perigee height: 1414 km
apogee height: 1421 km
right ascension of ascending node: 184.9997°
argument of perigee: 326.3838°
revolutions per day: 12.61336040
mean anomaly at epoch: 33.6974°
orbit number at epoch: 93739

The dashed part of the orbit path shows where the satellite is in the earth's shadow,  

DLR